Current weather by "City, St" or "zip code"  
 
Advertise Here

Current Conditions: San Diego, Miramar MCAS/Mitscher Field Airport, CA

Mostly Cloudy


57.0 F

Last Updated on Nov 23 2020, 6:55 pm PST
Humidity: 81%
Wind Speed: N 0.0 mph
Barometer 29.94 in
Dewpoint: 51.1 F
Visibility: 10.00 mi
Precip: --
Heat Index: NA
Wind Chill: NA
Current conditions at:

San Diego, Miramar MCAS/Mitscher Field Airport, CA (KNKX)

Lat: 32.86833 Lon: 117.1425

Local Radar Image active severe weather and emergency alerts image image weather storm and storm spotter reports image weather observation monitoring service image
Local
Radar
Active
Alerts
Storm Reports Obs
Monitoring

Sign-up For Email & Text Message Weather Alert Notification Services


Advertise Here

Observation History for San Diego, Miramar MCAS/Mitscher Field Airport, CA


Time Wind
(mph)
Vis
(mi)
Weather Precip (in) Temperature (F) Relative
Humidity
Wind
Chill
(F)
Heat
Index
(F)
Pressure
Air Dwpt altimeter
(in)
sea level
(mb)
Rmks
6:55 pm PST N 0.0 10.00 Mostly Cloudy -- 57.0 51.1 81% NA NA 29.94 1013.5
5:55 pm PST N 0.0 10.00 Mostly Cloudy -- 57.0 50.0 78% NA NA 29.92 1012.8
4:55 pm PST SW 5.8 10.00 Partly Cloudy -- 58.0 52.0 81% 57 NA 29.89 1011.8
3:55 pm PST SW 8.1 10.00 Mostly Cloudy -- 62.0 53.1 73% 61 NA 29.89 1011.6
1:55 pm PST SW 8.1 10.00 Mostly Cloudy -- 64.0 52.0 65% NA NA 29.88 1011.5
11:55 am PST 5.8 10.00 Mostly Cloudy -- 64.0 52.0 65% NA NA 29.90 1012.0
10:55 am PST 10.00 Mostly Cloudy -- 63.0 52.0 68% NA NA 29.92 1012.7
8:55 am PST SE 3.5 8.00 Overcast -- 59.0 53.1 81% NA NA 29.93 1013.2
6:55 am PST E 5.8 3.00 Fog/Mist -- 55.0 54.0 96% 54 NA 29.90 1012.2
5:55 am PST E 4.6 4.00 Fog/Mist -- 54.0 54.0 100% 53 NA 29.90 1012.1
4:55 am PST N 0.0 1.00 Fog/Mist -- 55.0 55.0 100% NA NA 29.88 1011.5
3:55 am PST E 3.5 1.75 Fog/Mist -- 54.0 54.0 100% NA NA 29.86 1010.8
2:55 am PST SE 5.8 4.00 Fog/Mist -- 55.0 55.0 100% 54 NA 29.87 1011.1
1:55 am PST E 5.8 4.00 Fog/Mist -- 54.0 54.0 100% 53 NA 29.88 1011.5
12:55 am PST E 4.6 4.00 Fog/Mist -- 54.0 54.0 100% 53 NA 29.89 1011.7
11:53 pm PST E 4.6 1.25 Fog/Mist -- 54.0 54.0 100% 53 NA 29.91 1012.2
10:55 pm PST N 0.0 0.15 Fog -- 54.0 54.0 100% NA NA 29.91 1012.3
8:55 pm PST N 0.0 10.00 Fair -- 51.0 51.1 100% NA NA 29.91 1012.3
7:55 pm PST E 4.6 10.00 Fair -- 53.0 51.1 93% 52 NA 29.91 1012.4

Regional Weather Observation


Oceanside, Oceanside Municipal Airport, CA (KOKB)

Overcast
51.0 F

Oceanside, Camp Pendleton, Marine Corps Air Station, CA (KNFG)

A Few Clouds
53.0 F

Mcolf Camp Pendleton (Red Beach), CA (KNXF)

Mostly Cloudy
74.0 F

San Diego, Miramar MCAS/Mitscher Field Airport, CA (KNKX)

Mostly Cloudy
57.0 F

San Diego, Montgomery Field, CA (KMYF)

Overcast
60.0 F

San Diego International Airport, CA (KSAN)

Mostly Cloudy
63.0 F